This demonstration page uses our WeatherBlox Daily Observations layout. Learn more.

Left ArrowRight Arrow

38.20091, -84.87328

Hourly Observations for January 6, 2015

Temp ( °F °C ) Dew Point ( °F °C ) Humidity (%) Winds ( mph kmh ) Pressure ( in mb ) Visibility ( mi km ) Precip ( " mm )
12:53 am 00:53 Cloudy 23 -5 10 -12.2 57 57 Calm 30.33 1027 10 16 0.00 0.00
1:53 am 01:53 Cloudy 23 -5 11 -11.7 60 60 SE 7 11 30.28 1026 10 16 0.00 0.00
2:53 am 02:53 Cloudy 24 -4.4 12 -11.1 60 60 Calm 30.31 1026 10 16 0.00 0.00
3:53 am 03:53 Cloudy 24 -4.4 12 -11.1 60 60 NW 3 6 30.31 1026 10 16 0.00 0.00
4:53 am 04:53 Cloudy 24 -4.4 13 -10.6 62 62 Calm 30.27 1025 10 16 0.00 0.00
5:53 am 05:53 Cloudy 24 -4.4 14 -10 65 65 S 6 9 30.25 1025 10 16 0.00 0.00
6:53 am 06:53 Cloudy 25 -3.9 15 -9.4 66 66 SW 7 11 30.26 1025 10 16 0.00 0.00
7:53 am 07:53 Cloudy 25 -3.9 16 -8.9 69 69 WSW 6 9 30.28 1025 10 16 0.00 0.00
8:53 am 08:53 Cloudy 26 -3.3 16 -8.9 66 66 W 7 11 30.30 1026 10 16 0.00 0.00
9:53 am 09:53 Cloudy 27 -2.8 16 -8.9 63 63 W 6 9 30.33 1027 10 16 0.00 0.00
10:53 am 10:53 Cloudy 29 -1.7 16 -8.9 58 58 WNW 9 15 30.34 1027 10 16 0.00 0.00
11:53 am 11:53 Cloudy 29 -1.7 15 -9.4 56 56 NW 9 15 30.33 1027 10 16 0.00 0.00
12:53 pm 12:53 Cloudy 30 -1.1 16 -8.9 56 56 NW 12 19 30.31 1026 10 16 0.00 0.00
1:53 pm 13:53 Cloudy 30 -1.1 16 -8.9 56 56 WNW 8 13 30.29 1026 10 16 0.00 0.00
2:53 pm 14:53 Cloudy 30 -1.1 16 -8.9 56 56 NW 8 13 30.30 1026 10 16 0.00 0.00
3:53 pm 15:53 Mostly Cloudy 30 -1.1 16 -8.9 56 56 NW 7 11 30.31 1026 10 16 0.00 0.00
4:53 pm 16:53 Cloudy 29 -1.7 16 -8.9 58 58 NW 6 9 30.32 1027 10 16 0.00 0.00
5:53 pm 17:53 Cloudy 29 -1.7 16 -8.9 58 58 Calm 30.31 1026 10 16 0.00 0.00
6:53 pm 18:53 Cloudy 28 -2.2 16 -8.9 60 60 WNW 7 11 30.32 1027 10 16 0.00 0.00
7:53 pm 19:53 Cloudy 28 -2.2 15 -9.4 58 58 WNW 10 17 30.33 1027 10 16 0.00 0.00
8:53 pm 20:53 Clear 25 -3.9 12 -11.1 58 58 WNW 12 19 30.34 1027 10 16 0.00 0.00
9:53 pm 21:53 Clear 24 -4.4 12 -11.1 60 60 WNW 12 19 30.32 1027 10 16 0.00 0.00
10:53 pm 22:53 Mostly Cloudy 23 -5 10 -12.2 57 57 WNW 14 22 30.34 1027 10 16 0.00 0.00
11:07 pm 23:07 Mostly Cloudy 23 -5 9 -12.8 55 55 WNW 10 17 30.36 1028 10 16 0.00 0.00
11:53 pm 23:53 Partly Cloudy 22 -5.6 10 -12.2 60 60 WNW 7 11 30.32 1027 10 16 0.00 0.00

Powered by AerisWeather